QPF
0.09 0.09 0.08 0.06 0.05 0.04 0.05 0.08 0.13 0.17 0.17 0.12 0.08 0.06 0.05 0.04 0.04 0.02 0.03 0.05 0.04 0.03 0.02 0.02 0.02 0.02 0.02 0.02 0.02 0.02 0.02 0.02 0.02 0.02 0.02 0.02 0.02 0.02
0.10 0.10 0.08 0.05 0.05 0.04 0.05 0.07 0.11 0.16 0.19 0.12 0.07 0.05 0.05 0.04 0.05 0.04 0.05 0.06 0.05 0.03 0.02 0.02 0.02 0.02 0.02 0.03 0.03 0.04 0.04 0.04 0.03 0.03 0.02 0.03 0.02 0.02
0.09 0.08 0.08 0.06 0.07 0.06 0.08 0.11 0.14 0.17 0.19 0.14 0.09 0.07 0.06 0.06 0.05 0.05 0.04 0.04 0.04 0.03 0.03 0.03 0.03 0.03 0.03 0.04 0.04 0.05 0.05 0.06 0.06 0.06 0.06 0.04 0.03 0.02
0.11 0.13 0.11 0.10 0.11 0.09 0.10 0.11 0.11 0.11 0.12 0.12 0.11 0.07 0.07 0.07 0.06 0.04 0.03 0.03 0.03 0.03 0.03 0.04 0.04 0.04 0.03 0.03 0.03 0.03 0.04 0.05 0.05 0.04 0.03 0.02 0.01 0.01
0.11 0.13 0.11 0.14 0.14 0.12 0.11 0.12 0.11 0.08 0.09 0.09 0.09 0.09 0.07 0.06 0.05 0.04 0.05 0.04 0.04 0.05 0.04 0.03 0.02 0.02 0.02 0.02 0.02 0.02 0.02 0.02 0.02 0.02 0.02 0.01 0.01 0.01
0.11 0.11 0.09 0.10 0.09 0.09 0.10 0.10 0.10 0.10 0.10 0.09 0.10 0.10 0.09 0.08 0.07 0.06 0.05 0.05 0.04 0.03 0.03 0.03 0.02 0.02 0.02 0.02 0.02 0.02 0.02 0.02 0.02 0.02 0.02 0.01 0.01 0.01
0.09 0.08 0.08 0.08 0.08 0.08 0.08 0.09 0.09 0.09 0.08 0.08 0.11 0.11 0.12 0.10 0.08 0.07 0.06 0.05 0.04 0.03 0.03 0.03 0.03 0.04 0.05 0.06 0.06 0.05 0.05 0.04 0.03 0.03 0.02 0.01 0.01 0.01
0.08 0.08 0.07 0.07 0.07 0.06 0.06 0.09 0.10 0.10 0.10 0.12 0.13 0.12 0.13 0.12 0.11 0.09 0.08 0.08 0.07 0.06 0.06 0.05 0.04 0.04 0.04 0.05 0.06 0.07 0.06 0.05 0.04 0.03 0.02 0.02 0.02 0.01
0.08 0.07 0.05 0.05 0.05 0.06 0.08 0.10 0.12 0.13 0.13 0.13 0.14 0.13 0.13 0.12 0.11 0.10 0.08 0.07 0.06 0.05 0.04 0.04 0.04 0.04 0.04 0.05 0.06 0.06 0.05 0.04 0.03 0.02 0.02 0.01 0.01 0.01
0.05 0.06 0.06 0.06 0.06 0.08 0.07 0.07 0.08 0.10 0.11 0.11 0.11 0.10 0.09 0.09 0.08 0.07 0.07 0.05 0.04 0.03 0.02 0.02 0.03 0.04 0.04 0.05 0.05 0.05 0.03 0.02 0.02 0.01 0.01 0.01 0.01 0.01
0.02 0.03 0.04 0.05 0.06 0.08 0.07 0.06 0.05 0.05 0.06 0.06 0.06 0.05 0.05 0.05 0.05 0.05 0.04 0.03 0.03 0.02 0.02 0.02 0.03 0.04 0.04 0.04 0.04 0.03 0.02 0.01 0.01 0.01 0.01 0.01 0.01 0.01
0.02 0.03 0.05 0.05 0.06 0.05 0.05 0.04 0.02 0.02 0.02 0.02 0.02 0.02 0.02 0.02 0.03 0.03 0.03 0.03 0.04 0.03 0.03 0.03 0.04 0.04 0.04 0.03 0.02 0.02 0.01 0.01 0.01 0.01 0.01 0.01 0.01 0.01
0.02 0.03 0.04 0.05 0.04 0.04 0.04 0.03 0.02 0.02 0.02 0.01 0.01 0.01 0.01 0.01 0.01 0.02 0.02 0.03 0.03 0.03 0.02 0.02 0.03 0.03 0.03 0.02 0.02 0.01 0.01 0.01 0.01 0.01 0.01 0.01 0.01 0.00
0.03 0.03 0.04 0.04 0.03 0.02 0.02 0.02 0.02 0.02 0.01 0.01 0.01 0.02 0.02 0.02 0.02 0.02 0.02 0.02 0.03 0.03 0.03 0.02 0.03 0.03 0.02 0.02 0.02 0.01 0.01 0.01 0.01 0.01 0.01 0.01 0.01 0.00
0.01 0.02 0.02 0.02 0.02 0.01 0.01 0.02 0.02 0.01 0.01 0.01 0.01 0.02 0.02 0.02 0.02 0.02 0.02 0.02 0.02 0.03 0.02 0.02 0.02 0.02 0.01 0.01 0.02 0.01 0.01 0.01 0.01 0.01 0.00 0.00 0.00 0.00
0.01 0.01 0.01 0.01 0.01 0.01 0.01 0.02 0.01 0.02 0.03 0.02 0.02 0.02 0.02 0.03 0.03 0.02 0.03 0.03 0.03 0.03 0.03 0.02 0.02 0.02 0.02 0.01 0.01 0.01 0.01 0.00 0.00 0.00 0.00 0.00 0.00 0.00
0.01 0.01 0.01 0.01 0.01 0.01 0.02 0.02 0.02 0.02 0.03 0.03 0.03 0.03 0.02 0.02 0.02 0.02 0.02 0.02 0.02 0.03 0.03 0.02 0.02 0.01 0.01 0.01 0.01 0.01 0.00 0.00 0.00 0.00 0.00 0.00 0.00 0.00
0.01 0.01 0.01 0.01 0.02 0.03 0.03 0.03 0.03 0.03 0.03 0.03 0.02 0.02 0.02 0.01 0.01 0.01 0.01 0.02 0.02 0.02 0.02 0.02 0.01 0.01 0.01 0.01 0.01 0.01 0.00 0.00 0.00 0.00 0.00 0.00 0.00 0.00
0.02 0.01 0.02 0.03 0.03 0.03 0.04 0.04 0.04 0.03 0.02 0.02 0.02 0.02 0.01 0.02 0.02 0.02 0.02 0.02 0.02 0.02 0.02 0.01 0.01 0.01 0.01 0.01 0.01 0.00 0.00 0.00 0.00 0.00 0.00 0.00 0.00 0.00
0.03 0.03 0.04 0.04 0.04 0.04 0.04 0.03 0.03 0.03 0.03 0.03 0.03 0.02 0.02 0.03 0.03 0.02 0.02 0.02 0.02 0.02 0.01 0.01 0.01 0.01 0.01 0.01 0.00 0.00 0.00 0.00 0.00 0.00 0.00 0.00 0.00 0.00
0.04 0.04 0.04 0.04 0.04 0.04 0.04 0.04 0.04 0.04 0.04 0.04 0.04 0.04 0.03 0.03 0.03 0.03 0.03 0.03 0.02 0.01 0.01 0.01 0.01 0.01 0.01 0.01 0.00 0.01 0.00 0.00 0.00 0.00 0.00 0.00 0.00 0.00
0.03 0.04 0.04 0.04 0.04 0.04 0.04 0.04 0.04 0.04 0.04 0.03 0.03 0.03 0.03 0.03 0.03 0.03 0.03 0.02 0.02 0.01 0.01 0.01 0.01 0.01 0.00 0.00 0.00 0.00 0.00 0.00 0.00 0.00 0.00 0.00 0.00 0.00
0.03 0.03 0.03 0.03 0.03 0.03 0.02 0.02 0.02 0.02 0.02 0.03 0.03 0.03 0.03 0.03 0.03 0.03 0.02 0.02 0.02 0.01 0.01 0.01 0.01 0.01 0.00 0.00 0.00 0.00 0.00 0.00 0.00 0.00 0.00 0.00 0.00 0.00
MSLP
1017.35 1017.48 1017.68 1017.93 1018.24 1018.58 1018.94 1019.30 1019.65 1019.97 1020.25 1020.50 1020.72 1020.92 1021.11 1021.29 1021.48 1021.69 1021.93 1022.20 1022.51 1022.86 1023.24 1023.63 1024.03 1024.42 1024.79 1025.12 1025.41 1025.66 1025.87 1026.05 1026.21 1026.35 1026.47 1026.57 1026.66 1026.71
1016.95 1017.04 1017.18 1017.40 1017.68 1018.03 1018.43 1018.85 1019.29 1019.72 1020.13 1020.52 1020.87 1021.19 1021.49 1021.78 1022.05 1022.33 1022.61 1022.92 1023.25 1023.61 1023.98 1024.35 1024.72 1025.08 1025.40 1025.69 1025.93 1026.14 1026.32 1026.47 1026.60 1026.72 1026.83 1026.93 1027.01 1027.06
1016.58 1016.61 1016.70 1016.85 1017.09 1017.42 1017.82 1018.27 1018.78 1019.30 1019.83 1020.35 1020.85 1021.31 1021.75 1022.16 1022.54 1022.91 1023.27 1023.63 1023.99 1024.35 1024.71 1025.07 1025.41 1025.72 1025.99 1026.22 1026.42 1026.57 1026.70 1026.81 1026.91 1027.01 1027.10 1027.18 1027.26 1027.32
1016.23 1016.20 1016.22 1016.31 1016.49 1016.76 1017.14 1017.61 1018.14 1018.73 1019.36 1019.99 1020.62 1021.23 1021.80 1022.34 1022.83 1023.31 1023.75 1024.17 1024.57 1024.96 1025.32 1025.67 1025.98 1026.25 1026.48 1026.66 1026.80 1026.91 1027.00 1027.07 1027.14 1027.20 1027.28 1027.36 1027.44 1027.51
1015.90 1015.81 1015.76 1015.78 1015.89 1016.11 1016.45 1016.89 1017.44 1018.06 1018.74 1019.46 1020.19 1020.91 1021.60 1022.25 1022.86 1023.43 1023.96 1024.45 1024.90 1025.32 1025.70 1026.04 1026.34 1026.59 1026.80 1026.95 1027.07 1027.15 1027.20 1027.25 1027.29 1027.35 1027.41 1027.49 1027.58 1027.67
1015.58 1015.43 1015.33 1015.29 1015.34 1015.51 1015.79 1016.20 1016.72 1017.34 1018.04 1018.80 1019.58 1020.37 1021.15 1021.90 1022.60 1023.25 1023.86 1024.41 1024.92 1025.38 1025.79 1026.15 1026.47 1026.73 1026.93 1027.09 1027.20 1027.27 1027.32 1027.37 1027.41 1027.46 1027.53 1027.62 1027.71 1027.82
1015.26 1015.09 1014.95 1014.87 1014.87 1014.99 1015.22 1015.57 1016.05 1016.63 1017.31 1018.07 1018.87 1019.69 1020.51 1021.31 1022.07 1022.80 1023.47 1024.08 1024.64 1025.15 1025.61 1026.01 1026.35 1026.64 1026.88 1027.06 1027.20 1027.30 1027.38 1027.44 1027.50 1027.57 1027.65 1027.74 1027.85 1027.96
1014.98 1014.80 1014.65 1014.55 1014.53 1014.60 1014.78 1015.08 1015.49 1016.02 1016.64 1017.35 1018.13 1018.94 1019.76 1020.58 1021.38 1022.14 1022.86 1023.52 1024.13 1024.69 1025.20 1025.65 1026.04 1026.38 1026.67 1026.91 1027.09 1027.24 1027.36 1027.47 1027.56 1027.65 1027.75 1027.86 1027.97 1028.08
1014.77 1014.61 1014.47 1014.38 1014.34 1014.38 1014.52 1014.75 1015.10 1015.55 1016.10 1016.74 1017.45 1018.22 1019.01 1019.82 1020.62 1021.40 1022.14 1022.84 1023.49 1024.09 1024.64 1025.14 1025.59 1025.99 1026.34 1026.63 1026.89 1027.10 1027.28 1027.43 1027.57 1027.69 1027.81 1027.92 1028.03 1028.14
1014.67 1014.55 1014.44 1014.36 1014.33 1014.36 1014.46 1014.64 1014.91 1015.28 1015.74 1016.29 1016.92 1017.62 1018.37 1019.14 1019.92 1020.69 1021.44 1022.15 1022.83 1023.45 1024.04 1024.57 1025.07 1025.51 1025.91 1026.27 1026.58 1026.86 1027.09 1027.30 1027.47 1027.62 1027.76 1027.88 1027.98 1028.07
1014.71 1014.63 1014.56 1014.52 1014.50 1014.53 1014.60 1014.73 1014.93 1015.22 1015.59 1016.06 1016.60 1017.23 1017.91 1018.63 1019.37 1020.11 1020.84 1021.55 1022.22 1022.85 1023.44 1023.99 1024.51 1024.98 1025.42 1025.82 1026.18 1026.50 1026.78 1027.03 1027.23 1027.41 1027.56 1027.68 1027.78 1027.85
1014.87 1014.85 1014.83 1014.82 1014.83 1014.85 1014.90 1014.99 1015.14 1015.35 1015.65 1016.03 1016.50 1017.04 1017.65 1018.31 1019.00 1019.70 1020.40 1021.07 1021.72 1022.33 1022.90 1023.44 1023.95 1024.42 1024.87 1025.28 1025.67 1026.02 1026.33 1026.60 1026.83 1027.03 1027.18 1027.30 1027.39 1027.46
1015.13 1015.16 1015.18 1015.21 1015.23 1015.26 1015.30 1015.37 1015.47 1015.63 1015.86 1016.17 1016.57 1017.05 1017.59 1018.19 1018.82 1019.47 1020.11 1020.73 1021.32 1021.88 1022.41 1022.91 1023.39 1023.84 1024.27 1024.68 1025.06 1025.42 1025.74 1026.02 1026.27 1026.47 1026.63 1026.76 1026.85 1026.91
1015.43 1015.49 1015.55 1015.60 1015.65 1015.68 1015.72 1015.77 1015.85 1015.97 1016.16 1016.42 1016.76 1017.18 1017.67 1018.20 1018.77 1019.35 1019.93 1020.48 1021.01 1021.51 1021.97 1022.42 1022.84 1023.24 1023.64 1024.02 1024.39 1024.73 1025.05 1025.34 1025.59 1025.79 1025.96 1026.09 1026.19 1026.26
1015.68 1015.77 1015.85 1015.93 1015.98 1016.03 1016.07 1016.11 1016.18 1016.29 1016.45 1016.68 1016.99 1017.36 1017.80 1018.28 1018.78 1019.30 1019.80 1020.28 1020.74 1021.16 1021.56 1021.94 1022.30 1022.66 1023.01 1023.35 1023.69 1024.02 1024.33 1024.61 1024.85 1025.07 1025.24 1025.38 1025.48 1025.57
1015.83 1015.93 1016.02 1016.10 1016.17 1016.22 1016.27 1016.32 1016.39 1016.50 1016.66 1016.88 1017.16 1017.51 1017.90 1018.33 1018.78 1019.23 1019.67 1020.08 1020.47 1020.83 1021.16 1021.48 1021.79 1022.10 1022.41 1022.73 1023.04 1023.35 1023.64 1023.91 1024.15 1024.36 1024.54 1024.69 1024.81 1024.92
1015.85 1015.94 1016.03 1016.10 1016.16 1016.22 1016.28 1016.35 1016.44 1016.56 1016.73 1016.95 1017.22 1017.55 1017.91 1018.30 1018.70 1019.10 1019.49 1019.85 1020.18 1020.49 1020.78 1021.07 1021.34 1021.62 1021.91 1022.20 1022.49 1022.78 1023.06 1023.32 1023.55 1023.76 1023.94 1024.10 1024.23 1024.36
1015.75 1015.81 1015.87 1015.93 1015.99 1016.05 1016.12 1016.20 1016.31 1016.46 1016.64 1016.87 1017.14 1017.46 1017.80 1018.16 1018.53 1018.89 1019.24 1019.56 1019.87 1020.16 1020.43 1020.70 1020.97 1021.24 1021.52 1021.80 1022.08 1022.36 1022.62 1022.87 1023.09 1023.29 1023.47 1023.62 1023.76 1023.90
1015.58 1015.59 1015.62 1015.65 1015.70 1015.76 1015.84 1015.94 1016.07 1016.23 1016.44 1016.67 1016.95 1017.25 1017.58 1017.92 1018.26 1018.60 1018.93 1019.25 1019.55 1019.84 1020.12 1020.40 1020.68 1020.96 1021.25 1021.53 1021.81 1022.08 1022.33 1022.55 1022.76 1022.94 1023.10 1023.25 1023.39 1023.52
1015.41 1015.37 1015.35 1015.35 1015.38 1015.44 1015.52 1015.64 1015.79 1015.97 1016.18 1016.42 1016.70 1016.99 1017.30 1017.63 1017.95 1018.28 1018.60 1018.92 1019.23 1019.54 1019.85 1020.15 1020.46 1020.77 1021.07 1021.36 1021.63 1021.89 1022.12 1022.32 1022.50 1022.66 1022.80 1022.93 1023.06 1023.18
1015.30 1015.21 1015.15 1015.13 1015.14 1015.18 1015.27 1015.39 1015.55 1015.74 1015.95 1016.20 1016.46 1016.74 1017.03 1017.33 1017.64 1017.96 1018.28 1018.61 1018.94 1019.27 1019.61 1019.95 1020.28 1020.61 1020.92 1021.21 1021.48 1021.72 1021.92 1022.10 1022.25 1022.38 1022.50 1022.61 1022.72 1022.83
1015.27 1015.15 1015.06 1015.02 1015.02 1015.07 1015.15 1015.28 1015.44 1015.63 1015.84 1016.07 1016.31 1016.56 1016.83 1017.11 1017.39 1017.70 1018.01 1018.34 1018.68 1019.03 1019.39 1019.75 1020.10 1020.44 1020.75 1021.03 1021.28 1021.49 1021.67 1021.81 1021.94 1022.04 1022.13 1022.23 1022.32 1022.43
1015.31 1015.18 1015.09 1015.04 1015.05 1015.11 1015.20 1015.34 1015.50 1015.68 1015.88 1016.08 1016.30 1016.51 1016.74 1016.98 1017.23 1017.51 1017.80 1018.12 1018.46 1018.81 1019.17 1019.52 1019.87 1020.19 1020.49 1020.75 1020.97 1021.15 1021.29 1021.41 1021.51 1021.59 1021.68 1021.76 1021.86 1021.96
Thickness
5747 5746 5745 5745 5746 5745 5743 5739 5729 5720 5718 5721 5721 5721 5719 5716 5712 5708 5705 5702 5699 5696 5693 5689 5685 5682 5678 5675 5671 5668 5664 5661 5657 5654 5651 5648 5644 5641
5745 5744 5743 5743 5743 5743 5741 5739 5735 5727 5718 5718 5717 5716 5714 5710 5705 5702 5698 5694 5691 5688 5685 5682 5678 5674 5670 5666 5663 5659 5655 5652 5648 5645 5641 5638 5634 5632
5744 5742 5740 5740 5739 5739 5738 5736 5732 5728 5718 5714 5711 5709 5707 5703 5698 5695 5690 5686 5683 5680 5677 5673 5669 5666 5662 5658 5654 5650 5646 5642 5639 5635 5632 5628 5624 5621
5741 5740 5738 5737 5736 5735 5733 5731 5729 5726 5719 5709 5704 5702 5699 5696 5691 5687 5683 5679 5675 5671 5668 5665 5661 5657 5653 5649 5645 5641 5637 5633 5629 5626 5622 5619 5615 5611
5739 5737 5735 5734 5731 5731 5729 5727 5725 5723 5718 5709 5702 5697 5692 5689 5683 5679 5675 5671 5667 5662 5659 5655 5652 5648 5644 5640 5637 5633 5629 5625 5621 5617 5613 5608 5604 5600
5736 5734 5732 5730 5729 5728 5726 5724 5721 5717 5712 5705 5698 5692 5686 5682 5677 5671 5665 5662 5659 5655 5651 5647 5643 5639 5635 5631 5628 5624 5620 5616 5612 5608 5604 5599 5595 5591
5730 5729 5728 5727 5725 5724 5723 5720 5716 5711 5705 5699 5693 5686 5681 5675 5671 5666 5660 5655 5651 5647 5642 5638 5635 5631 5627 5622 5618 5614 5610 5606 5602 5598 5594 5590 5585 5581
5724 5723 5722 5721 5720 5718 5716 5714 5711 5705 5700 5695 5689 5683 5677 5672 5667 5662 5655 5650 5643 5641 5636 5631 5627 5623 5619 5614 5609 5605 5601 5597 5593 5588 5584 5580 5576 5571
5719 5718 5717 5716 5713 5711 5708 5705 5702 5699 5696 5692 5686 5680 5674 5669 5663 5657 5652 5646 5641 5637 5630 5624 5620 5616 5611 5606 5601 5597 5592 5588 5584 5579 5575 5571 5566 5562
5713 5712 5710 5707 5706 5703 5700 5696 5692 5689 5687 5684 5680 5675 5671 5665 5660 5654 5647 5640 5634 5628 5625 5617 5613 5608 5604 5598 5593 5589 5584 5579 5575 5570 5566 5562 5558 5554
5706 5704 5702 5699 5697 5694 5691 5686 5682 5678 5676 5673 5669 5666 5661 5656 5651 5645 5638 5632 5625 5619 5616 5612 5607 5601 5595 5589 5585 5580 5575 5571 5567 5562 5558 5554 5550 5546
5697 5695 5692 5690 5687 5684 5681 5678 5673 5669 5666 5662 5658 5654 5651 5646 5642 5638 5633 5627 5620 5612 5608 5604 5600 5594 5587 5582 5578 5572 5567 5563 5559 5555 5551 5547 5543 5538
5689 5686 5681 5679 5677 5674 5672 5669 5665 5661 5657 5653 5648 5644 5639 5635 5631 5628 5624 5620 5614 5608 5603 5597 5592 5588 5582 5576 5571 5566 5562 5558 5553 5548 5544 5540 5535 5531
5680 5676 5671 5668 5666 5664 5661 5658 5655 5652 5648 5643 5638 5634 5630 5626 5621 5617 5613 5610 5606 5601 5596 5591 5586 5580 5574 5569 5564 5560 5556 5552 5547 5543 5538 5533 5529 5524
5669 5665 5661 5658 5655 5652 5649 5647 5645 5642 5638 5634 5629 5625 5621 5617 5612 5607 5603 5599 5595 5591 5587 5582 5578 5573 5568 5563 5559 5554 5550 5546 5542 5538 5533 5528 5523 5519
5658 5653 5650 5647 5645 5642 5638 5636 5634 5632 5629 5625 5620 5616 5611 5606 5602 5598 5593 5589 5584 5579 5576 5573 5569 5565 5560 5556 5552 5548 5544 5540 5536 5532 5528 5523 5519 5515
5648 5645 5641 5638 5634 5631 5629 5626 5624 5622 5618 5615 5611 5606 5602 5598 5594 5590 5585 5581 5576 5571 5567 5564 5560 5556 5552 5548 5543 5540 5536 5533 5530 5525 5520 5516 5514 5510
5640 5637 5633 5630 5627 5624 5621 5617 5615 5612 5609 5606 5602 5598 5593 5589 5585 5581 5577 5573 5569 5564 5560 5556 5551 5546 5542 5539 5536 5532 5528 5525 5522 5518 5514 5510 5507 5506
5630 5628 5625 5621 5619 5616 5612 5609 5606 5603 5600 5596 5593 5589 5586 5581 5577 5572 5568 5564 5560 5556 5552 5548 5543 5538 5533 5530 5527 5524 5520 5518 5515 5511 5508 5505 5502 5500
5621 5619 5616 5612 5609 5606 5603 5600 5597 5593 5590 5587 5583 5580 5576 5572 5568 5564 5560 5556 5552 5547 5543 5539 5535 5531 5527 5523 5520 5517 5515 5511 5508 5505 5502 5500 5498 5495
5611 5609 5606 5603 5600 5597 5594 5591 5587 5584 5581 5577 5574 5571 5567 5563 5559 5556 5552 5546 5543 5540 5535 5531 5527 5524 5521 5518 5514 5512 5509 5506 5503 5499 5496 5493 5490 5488
5601 5599 5596 5593 5590 5588 5584 5581 5578 5574 5571 5568 5565 5562 5559 5555 5551 5547 5543 5538 5535 5532 5528 5524 5520 5517 5513 5510 5507 5505 5503 5501 5498 5495 5492 5489 5485 5482
5591 5589 5586 5583 5580 5578 5575 5572 5569 5566 5563 5560 5557 5553 5550 5546 5542 5538 5535 5530 5527 5524 5521 5516 5513 5509 5507 5504 5502 5500 5498 5496 5493 5490 5488 5487 5484 5481